sat.trackr.live / text

‹ back to catalog

STARLINK-5959

NORAD 56454 · 2023-064G

PAYLOAD ACTIVE UNKNOWN

§ Identity

Operator
Country
US
Launch date
2023-05-10
Launch site
AFWTR
Launch vehicle
Mass (kg)
RCS (m²)

Purposes: comms

External: N2YO · Heavens-Above · Gunter

§ Orbital elements

Epoch: 2026-09-20T13:04:42.491136Z

Period
96.11 min
Inclination
70.0014°
Eccentricity
0.0003358
Mean motion
14.98339180 rev/d
Perigee alt
569.7 km
Apogee alt
574.4 km
Semi-major
6,950.2 km
B*
6.2620e-5
RAAN
13.1506°
Arg perigee
268.7229°
Mean anomaly
91.3545°
Rev number
18,443

§ Raw data

STARLINK-59591 56454U 23064G   26263.54493624  .00000654  00000+0  62620-4 0  99992 56454  70.0014  13.1506 0003358 268.7229  91.3545 14.98339180184432

JSON: /api/v1/satellites/56454 · /tle

For live sub-satellite position, see the globe view (requires WebGL).

§ Visibility from observer

Set your observer location to see the next 7 days of passes ≥ 10°. The values pass through the URL so the page stays shareable.

No JS? Fill the form by hand. The geolocation button needs JavaScript.